Temperature
16 17 17 16 16 16 15 13 12 13 13 13 13 13 14 14 14 14 14 14 14 14 14 14 13 13 13 12 12 12 13 13 13 13 13 13 13 13 13 14 14 14 14 14
16 17 17 16 16 16 16 15 14 14 13 14 14 14 14 14 14 14 14 14 14 14 14 14 13 13 13 12 12 12 12 12 12 13 13 13 13 13 13 13 13 14 14 14
15 16 16 15 16 16 16 15 15 14 14 14 14 14 14 14 14 14 14 14 14 14 14 14 14 13 13 12 12 12 12 12 12 12 12 12 12 13 13 13 13 13 13 13
14 16 16 15 16 17 16 15 15 15 14 15 15 15 15 14 14 14 14 14 14 14 14 14 13 13 13 13 12 12 12 12 12 12 12 12 12 12 12 12 12 13 13 13
13 15 15 16 17 16 15 15 15 15 15 15 15 14 14 14 14 14 14 14 14 14 14 14 14 13 13 13 12 12 12 12 12 12 12 12 12 12 12 12 12 12 12 12
14 16 16 16 16 17 16 14 15 15 15 15 14 11 12 14 14 14 14 14 14 14 14 14 14 13 13 13 13 12 12 12 12 12 12 12 11 11 11 12 11 12 12 12
14 15 15 16 17 17 14 14 15 16 15 15 14 13 15 15 14 14 14 14 14 14 14 14 14 14 13 13 13 12 12 12 12 12 12 11 11 11 11 11 11 11 11 11
13 14 15 16 16 14 14 16 16 16 15 15 15 15 15 15 14 14 14 14 14 14 14 14 14 14 13 13 13 13 12 12 12 12 12 11 11 11 11 11 11 11 11 11
13 14 16 17 17 17 17 16 16 15 15 15 15 15 15 14 14 14 14 14 14 14 14 14 14 14 13 13 13 13 12 12 12 12 11 11 11 11 11 11 11 11 11 11
14 15 16 17 17 17 17 16 16 15 15 15 15 14 14 14 14 14 14 14 14 14 14 14 14 14 13 13 13 13 12 12 12 11 11 11 11 11 11 11 11 11 11 10
15 15 16 16 17 16 16 16 15 15 15 15 14 14 14 14 14 14 14 14 14 14 14 14 14 14 13 13 13 13 12 12 12 11 11 11 11 11 11 11 10 10 10 10
14 16 16 17 17 16 16 16 15 15 14 14 14 14 14 14 14 14 14 14 14 14 14 14 14 14 13 13 13 13 12 12 12 11 11 11 11 10 10 10 10 10 10 10
20 19 19 18 17 16 16 16 15 15 14 14 14 14 14 14 14 14 14 14 14 14 14 14 14 14 13 13 13 13 12 12 12 11 11 11 11 10 10 10 10 10 10 10
20 19 18 17 17 16 16 15 15 15 14 14 14 14 14 14 14 14 14 14 14 14 14 14 14 13 13 13 13 13 12 12 12 11 11 11 11 10 10 10 10 10 10 10
19 19 18 17 17 16 16 15 15 14 14 14 14 14 14 14 14 14 14 14 13 14 14 13 13 13 13 13 13 13 12 12 12 12 11 11 11 11 10 10 10 10 9 9
18 18 17 17 16 16 15 15 15 15 14 14 14 14 14 13 13 13 13 13 13 13 13 13 13 13 13 13 13 13 12 12 12 12 11 11 11 11 10 10 10 10 10 9
18 17 17 16 16 16 15 15 15 15 14 14 14 14 14 13 13 13 13 13 13 13 13 13 13 13 13 13 13 13 12 12 12 12 12 11 11 11 11 10 10 10 10 9
19 19 18 17 17 16 16 15 15 15 15 14 14 14 13 13 13 13 13 13 13 13 13 13 13 13 13 13 13 13 13 12 12 12 12 11 11 11 11 10 10 10 10 9
18 18 18 17 17 16 16 15 15 15 15 15 14 14 14 13 13 13 13 13 13 13 13 13 13 13 13 13 13 13 13 13 12 12 12 12 11 11 11 11 10 10 10 10
18 18 17 17 17 16 16 16 15 15 15 15 14 14 14 13 13 13 13 13 13 13 13 13 13 13 13 13 13 13 13 13 13 12 12 12 12 11 11 11 11 10 10 10
18 17 17 17 17 16 16 16 16 15 15 15 14 14 14 13 13 13 13 13 13 13 13 13 13 13 13 13 13 13 13 13 13 12 12 12 12 11 11 11 11 11 11 10
17 17 17 17 16 16 16 16 16 15 15 15 14 14 14 13 13 13 13 13 13 13 12 12 13 13 13 13 13 13 13 13 13 13 12 12 12 12 12 11 11 11 11 11
16 16 16 16 16 16 16 16 15 15 15 15 14 14 14 14 13 13 13 13 13 13 12 13 13 13 13 13 13 13 13 13 13 13 12 12 12 12 12 12 11 11 11 11
15 15 16 16 16 16 15 15 15 15 15 15 14 14 14 14 13 13 13 13 13 13 13 13 13 13 13 13 13 13 13 13 13 13 13 12 12 12 12 12 11 11 11 11
14 14 15 15 15 15 15 15 15 15 15 14 14 14 14 14 13 13 13 13 13 13 13 13 13 13 13 13 13 13 13 13 13 13 13 13 12 12 12 12 12 11 11 11
13 14 14 14 14 14 14 15 15 15 14 14 14 14 14 14 13 13 13 13 13 13 13 13 13 12 12 12 13 13 13 13 13 13 13 13 12 12 12 12 12 12 11 11
12 13 13 13 13 13 14 14 14 14 14 14 14 14 14 14 13 13 13 13 13 13 13 13 12 12 12 12 12 12 12 12 12 12 12 12 12 12 12 12 12 12 12 11
Wind_Speed
3 4 4 3 2 2 3 4 5 4 4 5 4 3 3 4 5 5 7 7 8 8 8 8 7 6 7 7 8 7 8 9 9 9 8 8 8 8 7 8 7 5 5 4
1 3 3 1 2 3 2 3 3 4 3 4 3 1 2 4 4 5 7 7 9 9 9 8 6 5 5 6 7 7 8 8 8 9 9 9 8 8 8 8 7 7 7 6
1 2 1 2 4 5 3 3 5 5 5 3 2 2 1 2 3 4 6 7 8 8 8 7 5 3 4 4 5 6 7 8 8 8 9 9 9 9 8 7 7 8 7 7
2 2 2 6 3 4 4 2 3 4 5 5 5 3 1 1 1 3 5 6 7 8 7 6 4 3 3 4 5 6 6 7 7 8 8 8 8 9 8 6 7 6 7 7
3 1 3 4 2 4 4 1 2 6 5 4 5 4 4 2 1 2 4 5 5 5 4 5 4 3 4 5 5 6 6 6 6 6 7 8 9 8 6 6 7 6 5 7
3 1 4 5 3 4 5 1 3 5 5 5 6 3 3 4 2 3 4 4 5 6 5 5 4 3 4 5 5 5 4 4 5 5 6 7 7 7 6 6 6 6 8 8
2 3 6 5 3 5 3 6 4 6 7 6 5 5 5 2 1 2 4 5 5 6 5 5 4 3 4 4 4 3 3 4 5 5 6 6 7 6 6 6 7 7 8 8
4 2 6 6 6 6 7 4 7 7 7 6 5 3 2 1 1 3 4 6 6 6 6 5 4 3 3 4 4 2 4 5 5 6 6 6 7 7 7 7 8 7 7 8
7 7 5 6 7 6 7 8 7 7 6 6 5 3 2 1 1 3 4 5 5 5 6 6 5 3 2 4 3 2 4 4 4 6 6 6 7 7 7 7 6 6 6 6
2 4 4 5 5 6 7 8 8 7 7 6 5 4 3 1 1 3 4 4 4 5 6 6 5 4 3 3 2 4 4 3 3 5 5 6 6 6 6 6 6 6 6 6
2 3 4 4 6 8 8 8 8 7 6 7 6 4 3 1 1 2 3 4 4 4 4 5 5 4 4 3 3 5 3 3 3 3 3 4 5 5 5 4 3 3 3 3
8 9 8 9 9 10 10 9 9 8 6 6 6 5 3 1 1 1 2 3 4 5 5 4 4 3 4 3 3 4 3 2 2 2 2 2 3 4 6 5 7 8 7 5
7 7 7 7 10 10 11 10 9 8 8 6 5 4 3 1 1 1 1 3 4 5 4 4 3 3 4 2 2 3 3 2 1 2 2 2 1 2 3 5 7 9 10 10
8 8 5 7 9 10 10 10 9 8 7 7 5 4 3 1 0 1 2 4 4 4 4 3 3 3 4 2 2 2 2 2 2 2 2 2 2 1 2 2 3 4 6 10
8 7 8 8 9 9 9 8 8 7 6 6 5 4 4 3 2 3 4 4 3 4 3 2 2 4 4 2 2 2 2 1 1 1 1 2 2 3 3 3 2 2 3 5
7 7 9 10 11 10 9 9 9 8 7 7 6 6 5 4 3 4 4 3 2 3 3 2 2 4 3 1 1 1 1 2 2 1 1 2 3 3 3 3 3 2 2 2
10 9 9 10 11 10 10 10 10 9 8 8 8 7 5 3 1 3 4 3 2 2 1 1 3 4 3 1 1 1 1 1 1 2 2 3 3 3 4 4 3 2 1 1
12 12 12 13 12 10 10 10 9 9 9 9 8 7 6 5 4 5 5 3 1 1 1 2 3 4 3 1 1 1 2 2 2 2 2 3 3 4 4 4 4 3 2 2
8 10 11 12 12 11 11 10 9 9 9 9 9 8 7 6 6 5 4 2 2 3 4 5 5 3 3 2 0 1 2 2 2 2 3 4 4 4 4 4 4 4 4 3
7 9 10 11 10 10 10 9 9 9 9 9 9 7 6 6 5 5 4 4 5 5 5 5 3 2 3 3 1 1 2 2 3 3 3 3 4 4 5 5 5 5 5 4
7 8 9 9 9 9 10 10 10 10 9 10 9 9 8 7 5 4 4 4 5 5 5 4 2 2 3 3 2 1 2 2 3 4 4 4 4 4 5 5 5 5 5 5
3 5 7 8 8 8 8 9 10 10 10 9 9 8 7 6 5 5 5 6 6 6 5 3 3 5 5 4 3 3 3 3 3 4 4 5 5 5 5 5 6 6 6 6
1 2 4 6 8 8 7 7 9 10 10 10 10 9 8 7 6 5 5 6 5 7 5 4 6 8 8 4 3 4 4 4 4 4 5 5 5 6 6 6 6 6 6 6
3 2 1 2 4 6 6 7 8 8 9 9 10 10 8 6 6 6 6 6 8 9 6 7 9 10 8 3 4 4 4 4 4 5 5 5 5 5 5 6 6 6 6 8
3 3 2 2 2 4 5 6 6 6 7 6 8 9 8 7 7 7 6 7 9 9 6 7 10 9 5 4 4 5 5 5 5 5 5 5 5 5 6 6 6 6 7 7
4 3 2 2 3 3 3 3 4 5 5 6 6 6 6 6 7 6 6 7 9 8 6 5 6 6 4 5 5 5 5 5 5 5 5 5 6 6 6 6 8 7 7 7
4 4 3 3 3 2 2 3 4 5 6 7 7 7 7 6 6 6 7 7 6 6 6 5 5 5 5 5 5 5 5 5 5 5 5 5 5 6 6 8 6 6 6 6
Wind_Direction
190 184 162 160 149 119 121 164 171 206 207 243 251 263 299 322 330 343 344 346 344 340 341 346 354 4 12 12 10 14 21 23 18 15 18 20 22 23 28 33 41 42 52 53
232 198 168 157 195 163 156 152 159 162 221 241 227 239 346 342 350 352 344 344 344 342 343 347 356 6 13 15 12 19 24 21 17 19 24 23 21 23 32 37 41 50 55 63
262 223 94 275 231 190 184 188 174 192 217 206 175 172 233 330 358 348 338 342 345 340 338 345 358 15 14 7 14 24 24 19 19 21 22 19 23 28 32 35 43 52 52 56
106 94 249 257 246 157 152 189 181 170 183 183 177 176 217 187 33 346 337 339 338 338 342 348 7 24 16 19 25 27 26 22 19 22 22 18 23 26 25 33 42 46 46 43
108 162 274 290 232 158 148 285 205 165 174 162 140 69 356 315 314 322 326 328 325 329 334 352 6 13 31 26 23 26 24 22 20 23 24 24 24 20 21 34 39 40 40 41
112 154 246 246 216 143 107 281 244 155 151 145 126 98 276 286 310 338 339 332 338 341 353 1 351 12 37 20 17 17 15 20 21 27 30 28 23 21 24 36 39 43 43 39
172 226 262 242 159 108 153 229 190 147 142 136 152 190 229 263 332 342 335 336 348 353 352 339 333 18 28 8 356 352 23 33 28 27 35 32 30 28 31 37 40 41 42 37
165 209 262 203 147 174 207 168 145 141 144 139 153 168 152 114 20 346 344 344 353 355 345 339 344 14 8 341 331 19 52 50 39 32 37 41 37 32 32 36 42 37 37 33
186 214 238 187 187 186 151 146 151 149 150 137 130 123 104 93 5 335 337 340 347 354 346 344 343 356 352 322 346 75 72 59 51 49 44 40 42 37 33 34 41 37 37 36
209 257 200 173 152 148 151 149 154 150 142 129 129 125 109 102 351 335 331 334 344 357 357 344 338 340 338 337 31 96 92 72 67 67 52 40 40 40 44 37 37 39 37 32
224 229 153 201 180 162 150 140 140 139 139 141 137 134 132 148 321 329 332 331 347 354 343 331 334 340 345 9 75 92 92 81 80 80 74 53 45 38 40 35 34 45 33 25
212 202 179 204 192 163 151 155 154 149 151 153 152 157 147 173 296 317 326 335 348 348 344 335 341 337 342 8 98 111 102 94 104 116 111 88 63 40 33 39 39 43 42 42
187 174 177 177 168 162 159 163 163 161 163 164 165 165 155 173 295 309 326 337 335 331 329 336 352 341 333 355 86 113 127 132 121 129 139 149 122 77 47 18 26 33 34 40
145 127 134 157 169 166 159 161 158 158 163 163 166 168 162 160 215 290 295 297 312 331 341 354 12 347 332 5 85 109 119 127 131 144 152 160 159 131 107 83 42 11 13 32
167 159 164 161 155 158 154 149 151 164 171 175 176 175 175 183 223 266 280 293 327 347 348 357 6 336 331 21 84 121 128 131 123 126 130 129 124 112 105 100 83 43 20 21
176 147 143 149 161 164 161 164 169 184 186 188 189 194 195 199 230 275 286 292 318 317 310 316 320 312 323 20 88 115 189 185 148 139 120 110 114 119 117 113 103 79 54 29
155 165 168 173 175 176 178 179 181 187 188 188 193 192 188 188 247 287 289 296 295 286 270 262 300 312 325 339 162 199 221 227 166 130 147 149 141 143 144 141 141 135 120 105
186 184 178 178 179 181 187 187 186 186 189 196 187 180 183 193 221 244 262 285 342 355 294 275 297 314 329 331 192 199 206 216 196 184 179 168 161 158 159 161 163 157 150 120
184 181 181 182 182 180 184 188 190 190 187 178 175 184 196 210 220 236 242 235 252 271 271 281 311 330 316 303 262 198 216 220 210 204 195 183 170 169 173 177 179 178 172 165
179 181 182 185 184 181 187 188 184 183 183 177 177 185 203 221 227 233 227 230 236 231 248 274 300 306 301 297 303 229 224 210 205 206 200 192 192 193 190 189 187 186 184 184
176 178 180 183 186 188 186 181 178 184 185 179 179 191 205 221 225 209 202 240 258 240 250 274 276 268 279 291 303 270 244 225 212 209 206 204 207 205 201 196 193 192 190 190
175 180 183 181 180 187 189 181 180 181 180 184 190 192 197 212 218 217 221 224 240 228 226 252 257 259 271 289 283 273 258 242 227 218 212 208 206 210 211 205 200 200 196 192
115 167 180 184 185 186 183 183 184 182 184 190 192 194 199 206 201 199 238 241 226 223 219 240 253 267 278 280 272 270 262 251 236 227 220 213 210 209 209 210 206 201 195 193
48 53 180 189 168 166 184 201 197 195 195 197 200 198 194 201 219 223 222 233 218 221 225 245 261 272 278 261 261 264 262 257 247 238 229 221 215 213 211 209 207 204 199 196
33 31 39 79 149 198 212 210 203 204 202 208 215 212 204 196 203 218 214 218 220 221 231 253 266 279 273 251 252 256 258 254 250 238 227 222 218 215 214 210 207 205 202 201
11 359 329 258 232 229 218 202 205 210 203 213 226 225 219 216 216 215 211 216 220 221 225 242 256 267 258 253 253 255 257 264 265 247 233 228 224 218 216 215 212 207 206 205
348 349 345 334 317 286 247 218 216 220 212 210 223 226 219 216 213 212 213 216 218 223 229 236 241 243 246 249 253 256 259 259 255 247 239 232 226 223 221 218 214 210 205 203
Height
1571 1568 1569 1571 1571 1571 1575 1579 1585 1581 1579 1576 1573 1572 1570 1568 1566 1563 1560 1557 1553 1550 1546 1543 1539 1535 1531 1527 1523 1520 1516 1513 1510 1507 1505 1503 1502 1501 1501 1500 1499 1499 1500 1501
1572 1569 1570 1572 1571 1571 1572 1573 1575 1576 1577 1572 1571 1571 1569 1568 1566 1563 1561 1558 1555 1552 1548 1545 1541 1538 1534 1530 1526 1523 1519 1515 1513 1510 1508 1506 1504 1503 1503 1502 1502 1501 1502 1502
1580 1572 1573 1579 1571 1570 1570 1569 1572 1576 1574 1570 1571 1570 1569 1568 1566 1564 1562 1559 1556 1553 1550 1547 1543 1540 1536 1533 1529 1525 1522 1518 1515 1513 1510 1508 1507 1505 1504 1504 1503 1503 1503 1504
1581 1579 1584 1576 1564 1564 1567 1568 1567 1568 1568 1569 1569 1570 1569 1568 1567 1564 1562 1560 1557 1554 1551 1549 1546 1542 1539 1535 1532 1528 1525 1521 1518 1516 1513 1511 1509 1508 1507 1506 1505 1505 1505 1505
1584 1583 1578 1571 1564 1564 1568 1570 1567 1567 1567 1568 1569 1570 1570 1568 1567 1565 1563 1560 1558 1555 1553 1550 1547 1544 1541 1538 1534 1531 1528 1525 1522 1519 1517 1514 1512 1510 1509 1508 1507 1507 1506 1506
1580 1580 1581 1570 1562 1562 1567 1572 1566 1565 1567 1568 1569 1573 1572 1569 1567 1565 1563 1561 1559 1556 1554 1551 1549 1546 1543 1540 1537 1534 1531 1528 1526 1523 1520 1517 1515 1514 1512 1511 1510 1509 1508 1508
1579 1579 1573 1562 1560 1563 1575 1571 1565 1565 1566 1567 1568 1570 1570 1568 1567 1566 1564 1561 1559 1557 1555 1552 1550 1547 1544 1542 1539 1537 1534 1532 1529 1526 1523 1521 1518 1516 1515 1513 1512 1511 1510 1509
1579 1579 1572 1557 1559 1564 1563 1560 1562 1564 1566 1567 1568 1568 1569 1568 1567 1566 1564 1562 1560 1558 1556 1553 1551 1549 1546 1543 1541 1539 1537 1534 1531 1528 1526 1523 1521 1519 1517 1516 1514 1513 1512 1511
1566 1565 1554 1554 1555 1556 1557 1559 1562 1564 1565 1566 1567 1568 1568 1568 1567 1566 1564 1563 1561 1558 1556 1554 1552 1550 1547 1545 1543 1541 1539 1537 1534 1532 1529 1527 1524 1522 1520 1519 1517 1516 1515 1514
1557 1554 1552 1553 1554 1555 1557 1559 1561 1563 1565 1566 1567 1568 1568 1568 1567 1566 1565 1563 1561 1559 1557 1555 1553 1551 1549 1546 1544 1542 1541 1539 1537 1534 1532 1530 1528 1526 1524 1522 1520 1519 1517 1516
1554 1551 1552 1553 1553 1554 1556 1558 1561 1562 1564 1565 1566 1567 1567 1567 1567 1566 1564 1563 1561 1559 1557 1555 1554 1552 1550 1548 1546 1544 1542 1540 1539 1537 1535 1533 1531 1529 1527 1525 1523 1522 1521 1520
1550 1545 1547 1548 1550 1553 1555 1557 1559 1561 1563 1564 1565 1566 1566 1566 1566 1565 1564 1563 1561 1559 1558 1556 1554 1552 1550 1548 1547 1545 1543 1542 1541 1539 1537 1536 1534 1532 1530 1528 1527 1525 1524 1523
1539 1541 1543 1545 1548 1551 1553 1556 1558 1560 1562 1563 1564 1565 1565 1565 1565 1565 1564 1562 1561 1559 1558 1556 1554 1552 1551 1549 1547 1546 1544 1543 1542 1541 1539 1538 1536 1535 1533 1532 1531 1529 1527 1526
1538 1540 1542 1543 1546 1549 1552 1554 1557 1559 1560 1562 1563 1564 1564 1564 1564 1564 1563 1562 1560 1559 1557 1556 1554 1553 1551 1549 1548 1546 1545 1544 1543 1542 1541 1540 1539 1537 1536 1535 1534 1532 1531 1530
1537 1538 1540 1541 1545 1548 1551 1553 1555 1557 1559 1560 1561 1562 1562 1563 1563 1562 1562 1561 1560 1558 1557 1555 1554 1552 1551 1549 1548 1547 1546 1545 1544 1543 1542 1541 1540 1539 1538 1537 1536 1535 1534 1533
1535 1537 1538 1540 1543 1546 1548 1550 1552 1554 1556 1558 1559 1560 1561 1561 1561 1561 1560 1559 1558 1557 1556 1554 1553 1552 1550 1549 1548 1547 1546 1545 1545 1544 1543 1543 1542 1541 1540 1539 1538 1537 1536 1535
1532 1533 1535 1538 1540 1543 1545 1548 1550 1552 1554 1555 1557 1558 1558 1559 1559 1559 1558 1558 1556 1555 1554 1553 1552 1551 1549 1548 1547 1547 1546 1546 1545 1545 1544 1543 1543 1542 1541 1540 1540 1539 1538 1537
1528 1530 1532 1534 1537 1540 1543 1545 1548 1550 1551 1553 1554 1555 1556 1556 1556 1556 1556 1556 1555 1554 1553 1552 1550 1549 1548 1547 1546 1546 1546 1545 1545 1545 1544 1543 1543 1543 1542 1541 1541 1540 1539 1538
1525 1527 1530 1532 1535 1537 1540 1542 1545 1547 1549 1550 1551 1552 1553 1554 1554 1554 1554 1553 1552 1552 1551 1550 1548 1547 1546 1546 1545 1544 1544 1544 1544 1544 1543 1543 1543 1543 1542 1542 1541 1541 1540 1539
1523 1525 1527 1530 1532 1534 1537 1539 1542 1544 1545 1547 1548 1549 1550 1551 1551 1551 1551 1550 1550 1549 1548 1547 1546 1545 1544 1544 1543 1543 1542 1542 1543 1543 1542 1542 1542 1542 1542 1541 1541 1541 1540 1540
1520 1522 1524 1527 1529 1531 1534 1536 1538 1540 1542 1544 1545 1546 1547 1547 1548 1548 1548 1547 1547 1547 1546 1545 1544 1543 1542 1542 1541 1541 1540 1540 1541 1541 1541 1541 1541 1541 1541 1540 1540 1540 1540 1539
1518 1520 1522 1524 1526 1528 1530 1533 1535 1537 1539 1540 1541 1542 1543 1544 1544 1544 1544 1544 1544 1544 1543 1542 1541 1540 1540 1539 1539 1538 1538 1538 1538 1538 1539 1539 1539 1539 1539 1539 1539 1538 1538 1538
1516 1517 1519 1521 1523 1525 1527 1529 1531 1533 1535 1536 1537 1538 1539 1540 1540 1541 1540 1541 1540 1540 1540 1539 1538 1537 1536 1536 1535 1535 1535 1535 1535 1536 1536 1536 1536 1536 1536 1536 1536 1536 1536 1536
1514 1515 1517 1518 1520 1522 1523 1525 1527 1529 1531 1532 1533 1534 1535 1536 1536 1536 1537 1537 1537 1536 1536 1536 1535 1534 1533 1532 1532 1532 1532 1532 1532 1532 1533 1533 1533 1533 1533 1533 1533 1534 1534 1533
1512 1513 1514 1516 1517 1518 1520 1522 1523 1525 1526 1527 1529 1530 1531 1531 1532 1532 1533 1533 1533 1532 1532 1532 1531 1530 1530 1529 1529 1528 1528 1529 1529 1529 1529 1529 1529 1529 1530 1530 1530 1530 1530 1530
1511 1512 1512 1513 1514 1516 1517 1518 1519 1520 1521 1522 1524 1525 1526 1527 1527 1528 1528 1528 1528 1528 1528 1528 1527 1527 1526 1526 1525 1525 1525 1525 1525 1525 1525 1525 1525 1525 1525 1526 1526 1526 1526 1527
1509 1510 1510 1511 1512 1512 1513 1514 1514 1515 1516 1517 1518 1520 1521 1522 1522 1523 1523 1524 1524 1524 1524 1523 1523 1523 1522 1522 1522 1521 1521 1521 1521 1521 1521 1521 1521 1521 1521 1521 1521 1522 1522 1522